TimeCST,TemperatureF,Dew PointF,Humidity,Sea Level PressureIn,VisibilityMPH,Wind Direction,Wind SpeedMPH,Gust SpeedMPH,PrecipitationIn,Events,Conditions,WindDirDegrees,DateUTC
12:15 AM,5.0,1.4,85,30.76,10.0,North,-9999.0,-,N/A,,Clear,0,2013-11-24 06:15:00
12:35 AM,3.2,-2.2,78,30.76,10.0,North,-9999.0,-,N/A,,Clear,0,2013-11-24 06:35:00
12:55 AM,3.2,-0.4,85,30.75,10.0,North,-9999.0,-,N/A,,Clear,0,2013-11-24 06:55:00
1:15 AM,3.2,-2.2,78,30.74,10.0,North,-9999.0,-,N/A,,Clear,0,2013-11-24 07:15:00
1:35 AM,3.2,-2.2,78,30.73,10.0,North,-9999.0,-,N/A,,Clear,0,2013-11-24 07:35:00
1:55 AM,3.2,-0.4,85,30.73,10.0,North,-9999.0,-,N/A,,Clear,0,2013-11-24 07:55:00
2:15 AM,3.2,-0.4,85,30.73,10.0,North,-9999.0,-,N/A,,Clear,0,2013-11-24 08:15:00
2:35 AM,3.2,-2.2,78,30.73,10.0,North,-9999.0,-,N/A,,Clear,0,2013-11-24 08:35:00
2:55 AM,1.4,-2.2,85,30.73,10.0,North,-9999.0,-,N/A,,Clear,0,2013-11-24 08:55:00
3:15 AM,1.4,-2.2,85,30.73,10.0,North,-9999.0,-,N/A,,Clear,0,2013-11-24 09:15:00
3:35 AM,3.2,-2.2,78,30.73,10.0,North,-9999.0,-,N/A,,Clear,0,2013-11-24 09:35:00
3:55 AM,3.2,-2.2,78,30.72,10.0,North,-9999.0,-,N/A,,Clear,0,2013-11-24 09:55:00
4:15 AM,1.4,-2.2,85,30.71,10.0,North,-9999.0,-,N/A,,Clear,0,2013-11-24 10:15:00
4:35 AM,1.4,-2.2,85,30.71,10.0,North,-9999.0,-,N/A,,Clear,0,2013-11-24 10:35:00
4:55 AM,3.2,-2.2,78,30.71,10.0,North,-9999.0,-,N/A,,Clear,0,2013-11-24 10:55:00
5:15 AM,1.4,-2.2,85,30.70,10.0,North,-9999.0,-,N/A,,Clear,0,2013-11-24 11:15:00
5:35 AM,3.2,-2.2,78,30.69,10.0,North,-9999.0,-,N/A,,Clear,0,2013-11-24 11:35:00
5:55 AM,1.4,-2.2,85,30.68,10.0,North,-9999.0,-,N/A,,Clear,0,2013-11-24 11:55:00
6:15 AM,1.4,-2.2,85,30.69,10.0,North,-9999.0,-,N/A,,Clear,0,2013-11-24 12:15:00
6:35 AM,3.2,-0.4,85,30.69,10.0,North,-9999.0,-,N/A,,Clear,0,2013-11-24 12:35:00
6:55 AM,3.2,-0.4,85,30.68,8.0,North,-9999.0,-,N/A,,Clear,0,2013-11-24 12:55:00
7:15 AM,3.2,-2.2,78,30.68,10.0,North,-9999.0,-,N/A,,Clear,0,2013-11-24 13:15:00
7:35 AM,3.2,-0.4,85,30.68,10.0,North,-9999.0,-,N/A,,Clear,0,2013-11-24 13:35:00
7:55 AM,5.0,1.4,85,30.68,10.0,North,-9999.0,-,N/A,,Clear,0,2013-11-24 13:55:00
8:15 AM,8.6,3.2,79,30.67,10.0,North,-9999.0,-,N/A,,Clear,0,2013-11-24 14:15:00
8:35 AM,10.4,5.0,79,30.67,10.0,North,-9999.0,-,N/A,,Clear,0,2013-11-24 14:35:00
8:55 AM,12.2,5.0,73,30.66,10.0,North,-9999.0,-,N/A,,Clear,0,2013-11-24 14:55:00
9:15 AM,14.0,6.8,73,30.66,10.0,North,-9999.0,-,N/A,,Clear,0,2013-11-24 15:15:00
9:35 AM,15.8,6.8,68,30.65,10.0,North,-9999.0,-,N/A,,Clear,0,2013-11-24 15:35:00
9:55 AM,17.6,5.0,58,30.64,10.0,North,-9999.0,-,N/A,,Clear,0,2013-11-24 15:55:00
10:15 AM,17.6,5.0,58,30.64,10.0,North,-9999.0,-,N/A,,Clear,0,2013-11-24 16:15:00
10:35 AM,17.6,5.0,58,30.62,10.0,North,-9999.0,-,N/A,,Clear,0,2013-11-24 16:35:00
10:55 AM,19.4,6.8,58,30.61,10.0,North,-9999.0,-,N/A,,Clear,0,2013-11-24 16:55:00
11:15 AM,21.2,6.8,54,30.59,10.0,North,-9999.0,-,N/A,,Clear,0,2013-11-24 17:15:00
11:35 AM,21.2,5.0,50,30.57,10.0,North,-9999.0,-,N/A,,Clear,0,2013-11-24 17:35:00
11:55 AM,23.0,5.0,46,30.56,10.0,North,-9999.0,-,N/A,,Clear,0,2013-11-24 17:55:00
12:15 PM,24.8,5.0,43,30.55,10.0,North,-9999.0,-,N/A,,Clear,0,2013-11-24 18:15:00
12:35 PM,24.8,5.0,43,30.53,10.0,North,-9999.0,-,N/A,,Clear,0,2013-11-24 18:35:00
12:55 PM,24.8,5.0,43,30.51,10.0,North,-9999.0,-,N/A,,Clear,0,2013-11-24 18:55:00
1:15 PM,26.6,6.8,43,30.49,10.0,North,-9999.0,-,N/A,,Clear,0,2013-11-24 19:15:00
1:35 PM,26.6,6.8,43,30.48,10.0,North,-9999.0,-,N/A,,Clear,0,2013-11-24 19:35:00
1:55 PM,26.6,8.6,47,30.47,10.0,North,-9999.0,-,N/A,,Clear,0,2013-11-24 19:55:00
2:15 PM,26.6,8.6,47,30.46,10.0,North,-9999.0,-,N/A,,Clear,0,2013-11-24 20:15:00
2:35 PM,26.6,8.6,47,30.44,10.0,North,-9999.0,-,N/A,,Clear,0,2013-11-24 20:35:00
2:55 PM,26.6,8.6,47,30.42,10.0,North,-9999.0,-,N/A,,Clear,0,2013-11-24 20:55:00
3:15 PM,26.6,8.6,47,30.42,10.0,North,-9999.0,-,N/A,,Clear,0,2013-11-24 21:15:00
3:35 PM,26.6,6.8,43,30.41,10.0,North,-9999.0,-,N/A,,Clear,0,2013-11-24 21:35:00
3:55 PM,26.6,6.8,43,30.41,10.0,North,-9999.0,-,N/A,,Clear,0,2013-11-24 21:55:00
4:15 PM,26.6,6.8,43,30.40,10.0,North,-9999.0,-,N/A,,Clear,0,2013-11-24 22:15:00
4:35 PM,24.8,8.6,50,30.39,10.0,North,-9999.0,-,N/A,,Clear,0,2013-11-24 22:35:00
4:55 PM,24.8,8.6,50,30.38,10.0,North,-9999.0,-,N/A,,Clear,0,2013-11-24 22:55:00
5:15 PM,24.8,8.6,50,30.38,10.0,North,-9999.0,-,N/A,,Clear,0,2013-11-24 23:15:00
5:35 PM,24.8,8.6,50,30.38,10.0,North,-9999.0,-,N/A,,Clear,0,2013-11-24 23:35:00
5:55 PM,24.8,10.4,54,30.37,10.0,North,-9999.0,-,N/A,,Clear,0,2013-11-24 23:55:00
6:15 PM,23.0,10.4,59,30.37,10.0,North,-9999.0,-,N/A,,Clear,0,2013-11-25 00:15:00
6:35 PM,23.0,10.4,59,30.36,10.0,North,-9999.0,-,N/A,,Clear,0,2013-11-25 00:35:00
6:55 PM,23.0,10.4,59,30.36,10.0,North,-9999.0,-,N/A,,Clear,0,2013-11-25 00:55:00
7:15 PM,23.0,10.4,59,30.35,10.0,North,-9999.0,-,N/A,,Clear,0,2013-11-25 01:15:00
7:35 PM,23.0,10.4,59,30.34,10.0,North,-9999.0,-,N/A,,Clear,0,2013-11-25 01:35:00
7:55 PM,23.0,10.4,59,30.33,10.0,North,-9999.0,-,N/A,,Clear,0,2013-11-25 01:55:00
8:15 PM,23.0,10.4,59,30.33,10.0,North,-9999.0,-,N/A,,Clear,0,2013-11-25 02:15:00
8:35 PM,23.0,10.4,59,30.31,10.0,North,-9999.0,-,N/A,,Clear,0,2013-11-25 02:35:00
8:55 PM,23.0,8.6,54,30.31,10.0,North,-9999.0,-,N/A,,Clear,0,2013-11-25 02:55:00
9:15 PM,23.0,10.4,59,30.30,10.0,North,-9999.0,-,N/A,,Clear,0,2013-11-25 03:15:00
9:35 PM,23.0,10.4,59,30.29,10.0,North,-9999.0,-,N/A,,Clear,0,2013-11-25 03:35:00
9:55 PM,23.0,10.4,59,30.29,10.0,North,-9999.0,-,N/A,,Partly Cloudy,0,2013-11-25 03:55:00
10:15 PM,23.0,10.4,59,30.28,10.0,North,-9999.0,-,N/A,,Clear,0,2013-11-25 04:15:00
10:35 PM,23.0,10.4,59,30.27,10.0,North,-9999.0,-,N/A,,Clear,0,2013-11-25 04:35:00
10:55 PM,23.0,10.4,59,30.26,10.0,North,-9999.0,-,N/A,,Scattered Clouds,0,2013-11-25 04:55:00
11:15 PM,24.8,10.4,54,30.26,10.0,North,-9999.0,-,N/A,,Scattered Clouds,0,2013-11-25 05:15:00
11:35 PM,24.8,10.4,54,30.25,10.0,North,-9999.0,-,N/A,,Mostly Cloudy,0,2013-11-25 05:35:00
11:55 PM,24.8,10.4,54,30.25,10.0,North,-9999.0,-,N/A,,Overcast,0,2013-11-25 05:55:00